Ephrata, WA
on Monday, December 31, 2012

Monday
Previous Day Next Day
Daily Summary
 ActualAverageRecord
Temperature
Mean Temperature °F 26°F  
Max Temperature 28°F 32°F 51°F (1954)
Min Temperature 24°F 20°F -9°F (1978)
Degree Days
Heating Degree Days 39 39  
Month to date heating degree days 995 1169  
Since 1 July heating degree days 2255 2586  
Cooling Degree Days 0 0  
Month to date cooling degree days 0 0  
Year to date cooling degree days 837 772  
Moisture
Dew Point 22°F   
Average Humidity 84    
Maximum Humidity 92    
Minimum Humidity 75    
Precipitation
Precipitation 0.00 in 0.04 in 0.44 in (1996)
Month to date precipitation 1.69 1.24  
Year to date precipitation 8.64 7.85  
Wind
Wind Speed 5 mph   
Max Wind Speed 10 mph   
Max Gust Speed 13 mph   
Visibility 10 miles   
Events     

Key: T is trace of precipitation, MM is missing value
Source: NWS Daily Summary
Time(PST)TemperatureDew PointHumidity Pressure Visibility Wind DirectionWind SpeedGust SpeedPrecipitationEvents Conditions
12:53 AM 24.1°F 21.9°F 91% 30.38 in 10.0 miles NNE 3.5 mph - N/A   Overcast
1:53 AM 24.1°F 21.9°F 91% 30.39 in 10.0 miles North 4.6 mph - N/A   Overcast
2:05 AM 24.8°F 21.2°F 86% 30.33 in 10.0 miles North 3.5 mph - N/A   Overcast
2:53 AM 25.0°F 23.0°F 92% 30.39 in 9.0 miles Calm Calm - N/A   Overcast
3:10 AM 24.8°F 23.0°F 93% 30.32 in 9.0 miles Calm Calm - N/A   Overcast
3:27 AM 24.8°F 23.0°F 93% 30.32 in 10.0 miles NNW 3.5 mph - N/A   Overcast
4:53 AM 25.0°F 21.9°F 88% 30.37 in 10.0 miles NW 4.6 mph - N/A   Overcast
5:53 AM 25.0°F 23.0°F 92% 30.37 in 10.0 miles NNW 4.6 mph - N/A   Overcast
6:53 AM 26.1°F 23.0°F 88% 30.37 in 10.0 miles Calm Calm - N/A   Overcast
7:53 AM 26.1°F 21.9°F 84% 30.37 in 10.0 miles NNW 3.5 mph - N/A   Overcast
8:53 AM 26.1°F 21.0°F 81% 30.38 in 10.0 miles NNW 4.6 mph - N/A   Overcast
9:53 AM 26.1°F 21.9°F 84% 30.39 in 10.0 miles NW 3.5 mph - N/A   Overcast
10:53 AM 26.1°F 21.9°F 84% 30.40 in 10.0 miles NNW 6.9 mph - N/A   Overcast
11:53 AM 26.1°F 21.9°F 84% 30.39 in 10.0 miles NNW 8.1 mph - N/A   Overcast
12:15 PM 26.6°F 21.2°F 80% 30.34 in 9.0 miles NNW 6.9 mph - N/A   Overcast
12:53 PM 27.0°F 21.9°F 81% 30.40 in 10.0 miles NNW 6.9 mph - N/A   Overcast
1:53 PM 27.0°F 21.9°F 81% 30.41 in 10.0 miles NNW 6.9 mph - N/A   Overcast
2:53 PM 27.0°F 21.9°F 81% 30.42 in 10.0 miles North 6.9 mph - N/A   Overcast
3:53 PM 27.0°F 21.9°F 81% 30.44 in 10.0 miles North 5.8 mph - N/A   Overcast
4:53 PM 27.0°F 21.0°F 78% 30.44 in 10.0 miles NNW 5.8 mph - N/A   Overcast
5:53 PM 27.0°F 21.9°F 81% 30.45 in 10.0 miles North 4.6 mph - N/A   Overcast
6:53 PM 27.0°F 21.9°F 81% 30.45 in 10.0 miles NNW 5.8 mph - N/A   Overcast
8:53 PM 28.0°F 21.9°F 78% 30.49 in 10.0 miles NNW 4.6 mph - N/A   Overcast
10:53 PM 27.0°F 19.9°F 75% 30.52 in 10.0 miles NNW 6.9 mph - N/A   Overcast
11:53 PM 28.0°F 19.9°F 72% 30.53 in 10.0 miles NW 3.5 mph - N/A   Overcast
Moon Phase
Dec. 31 Jan. 04 Jan. 11 Jan. 18 Jan. 26
Sunrise:07:45 AM (PST) Moon Rise:08:09 PM (PST)12/31
Sunset:04:17 PM (PST) Moon Set:09:15 AM (PST)12/31

Copyright © 2014 The Weather Underground, Inc.